Stündliche Wetter Abaytikau

Heute, 23 Juni, Mittwoch

Zeit Temperatur Niederschläge Wind Luftdruck Luftfeuchtigkeit
00:00 +12°C° 0 mm 3 m/S 581 mmHg 42%
01:00 +12°C° 0 mm 3 m/S 581 mmHg 42%
02:00 +11°C° 0 mm 3 m/S 581 mmHg 41%
03:00 +11°C° 0 mm 3 m/S 581 mmHg 41%
04:00 +12°C° 0 mm 3 m/S 581 mmHg 44%
05:00 +13°C° 0 mm 3 m/S 582 mmHg 47%
06:00 +14°C° 0 mm 3 m/S 582 mmHg 50%
07:00 +17°C° 0 mm 2 m/S 583 mmHg 45%
08:00 +19°C° 0 mm 2 m/S 584 mmHg 40%
09:00 +20°C° 0 mm 2 m/S 584 mmHg 35%
10:00 +21°C° 0 mm 2 m/S 585 mmHg 35%
11:00 +21°C° 0 mm 2 m/S 585 mmHg 35%
12:00 +23°C° 0 mm 2 m/S 585 mmHg 35%
13:00 +23°C° 0 mm 2 m/S 585 mmHg 37%
14:00 +23°C° 0 mm 2 m/S 585 mmHg 38%
15:00 +23°C° 0 mm 2 m/S 585 mmHg 39%
16:00 +21°C° 0 mm 2 m/S 585 mmHg 43%
17:00 +20°C° 0 mm 2 m/S 584 mmHg 47%
18:00 +20°C° 0 mm 1 m/S 584 mmHg 51%
19:00 +17°C° 0 mm 2 m/S 584 mmHg 51%
20:00 +15°C° 0 mm 2 m/S 583 mmHg 51%
21:00 +12°C° 0 mm 3 m/S 582 mmHg 51%
22:00 +12°C° 0 mm 3 m/S 582 mmHg 48%
23:00 +12°C° 0 mm 3 m/S 582 mmHg 45%

Morgen, 24 Juni, Donnerstag

Zeit Temperatur Niederschläge Wind Luftdruck Luftfeuchtigkeit
00:00 +12°C° 0 mm 3 m/S 582 mmHg 42%
01:00 +11°C° 0 mm 3 m/S 581 mmHg 47%
02:00 +11°C° 0 mm 3 m/S 581 mmHg 51%
03:00 +11°C° 0 mm 3 m/S 581 mmHg 55%
04:00 +12°C° 0 mm 3 m/S 581 mmHg 55%
05:00 +13°C° 0 mm 3 m/S 582 mmHg 54%
06:00 +14°C° 0 mm 2 m/S 582 mmHg 53%
07:00 +16°C° 0 mm 2 m/S 583 mmHg 48%
08:00 +18°C° 0 mm 2 m/S 583 mmHg 43%
09:00 +20°C° 0 mm 2 m/S 584 mmHg 37%
10:00 +21°C° 0 mm 2 m/S 584 mmHg 37%
11:00 +23°C° 0 mm 2 m/S 585 mmHg 37%
12:00 +23°C° 0 mm 2 m/S 585 mmHg 37%
13:00 +23°C° 0 mm 2 m/S 585 mmHg 38%
14:00 +23°C° 0 mm 2 m/S 585 mmHg 38%
15:00 +23°C° 0 mm 2 m/S 585 mmHg 39%
16:00 +21°C° 0 mm 2 m/S 585 mmHg 43%
17:00 +20°C° 0 mm 2 m/S 584 mmHg 46%
18:00 +20°C° 0 mm 2 m/S 584 mmHg 50%
19:00 +18°C° 0.1 mm 2 m/S 584 mmHg 51%
20:00 +14°C° 0.1 mm 3 m/S 583 mmHg 52%
21:00 +12°C° 0.1 mm 3 m/S 582 mmHg 54%
22:00 +12°C° 0.1 mm 3 m/S 582 mmHg 52%
23:00 +12°C° 0.1 mm 3 m/S 582 mmHg 50%

übermorgen, 25 Juni, Freitag

Zeit Temperatur Niederschläge Wind Luftdruck Luftfeuchtigkeit
00:00 +11°C° 0.1 mm 3 m/S 581 mmHg 49%
01:00 +11°C° 0.1 mm 3 m/S 581 mmHg 49%
02:00 +11°C° 0.1 mm 3 m/S 581 mmHg 49%
03:00 +11°C° 0.1 mm 3 m/S 581 mmHg 49%
04:00 +12°C° 0 mm 3 m/S 581 mmHg 49%
05:00 +13°C° 0 mm 3 m/S 581 mmHg 49%
06:00 +14°C° 0 mm 3 m/S 582 mmHg 49%
07:00 +17°C° 0 mm 2 m/S 582 mmHg 43%
08:00 +19°C° 0 mm 2 m/S 583 mmHg 37%
09:00 +20°C° 0 mm 2 m/S 583 mmHg 31%
10:00 +21°C° 0 mm 2 m/S 584 mmHg 31%
11:00 +23°C° 0 mm 2 m/S 584 mmHg 32%
12:00 +23°C° 0 mm 2 m/S 584 mmHg 32%
13:00 +23°C° 0.1 mm 2 m/S 584 mmHg 33%
14:00 +23°C° 0.1 mm 2 m/S 584 mmHg 34%
15:00 +23°C° 0.1 mm 2 m/S 584 mmHg 36%
16:00 +21°C° 0.1 mm 2 m/S 584 mmHg 39%
17:00 +20°C° 0.1 mm 2 m/S 583 mmHg 43%
18:00 +21°C° 0.1 mm 1 m/S 583 mmHg 47%
19:00 +17°C° 0.1 mm 2 m/S 582 mmHg 47%
20:00 +15°C° 0.1 mm 2 m/S 582 mmHg 47%
21:00 +12°C° 0.1 mm 3 m/S 581 mmHg 46%
22:00 +12°C° 0 mm 3 m/S 581 mmHg 46%
23:00 +12°C° 0 mm 3 m/S 580 mmHg 46%

26 Juni, Samstag

Zeit Temperatur Niederschläge Wind Luftdruck Luftfeuchtigkeit
00:00 +11°C° 0 mm 3 m/S 580 mmHg 46%
01:00 +11°C° 0.1 mm 3 m/S 580 mmHg 47%
02:00 +11°C° 0.1 mm 3 m/S 580 mmHg 48%
03:00 +11°C° 0.1 mm 3 m/S 579 mmHg 49%
04:00 +12°C° 0 mm 3 m/S 580 mmHg 50%
05:00 +13°C° 0 mm 3 m/S 580 mmHg 51%
06:00 +14°C° 0 mm 3 m/S 581 mmHg 51%
07:00 +16°C° 0 mm 3 m/S 581 mmHg 46%
08:00 +18°C° 0 mm 2 m/S 582 mmHg 41%
09:00 +20°C° 0 mm 2 m/S 583 mmHg 36%
10:00 +20°C° 0 mm 2 m/S 583 mmHg 36%
11:00 +21°C° 0 mm 2 m/S 583 mmHg 36%
12:00 +23°C° 0 mm 2 m/S 583 mmHg 37%
13:00 +23°C° 0.1 mm 2 m/S 583 mmHg 38%
14:00 +23°C° 0.1 mm 2 m/S 583 mmHg 39%
15:00 +21°C° 0.1 mm 2 m/S 583 mmHg 41%
16:00 +21°C° 0.2 mm 2 m/S 583 mmHg 45%
17:00 +20°C° 0.2 mm 2 m/S 582 mmHg 50%
18:00 +19°C° 0.2 mm 2 m/S 582 mmHg 54%
19:00 +17°C° 0.2 mm 2 m/S 582 mmHg 54%
20:00 +16°C° 0.2 mm 2 m/S 581 mmHg 55%
21:00 +13°C° 0.2 mm 3 m/S 581 mmHg 55%
22:00 +13°C° 0 mm 3 m/S 581 mmHg 55%
23:00 +12°C° 0 mm 3 m/S 580 mmHg 56%

27 Juni, Sonntag

Zeit Temperatur Niederschläge Wind Luftdruck Luftfeuchtigkeit
00:00 +12°C° 0 mm 3 m/S 580 mmHg 56%
01:00 +11°C° 0 mm 3 m/S 580 mmHg 58%
02:00 +11°C° 0 mm 3 m/S 580 mmHg 59%
03:00 +11°C° 0 mm 3 m/S 580 mmHg 60%
04:00 +12°C° 0.1 mm 3 m/S 580 mmHg 60%
05:00 +13°C° 0.1 mm 3 m/S 581 mmHg 61%
06:00 +14°C° 0.1 mm 2 m/S 581 mmHg 61%
07:00 +16°C° 0 mm 2 m/S 582 mmHg 56%
08:00 +17°C° 0 mm 2 m/S 582 mmHg 50%
09:00 +19°C° 0 mm 2 m/S 583 mmHg 45%
10:00 +19°C° 0.1 mm 2 m/S 583 mmHg 45%
11:00 +20°C° 0.1 mm 2 m/S 583 mmHg 45%
12:00 +21°C° 0.1 mm 2 m/S 583 mmHg 45%
13:00 +20°C° 0.5 mm 2 m/S 583 mmHg 48%
14:00 +20°C° 0.5 mm 2 m/S 583 mmHg 50%
15:00 +19°C° 0.5 mm 2 m/S 583 mmHg 53%
16:00 +19°C° 0.6 mm 2 m/S 583 mmHg 57%
17:00 +19°C° 0.6 mm 1 m/S 583 mmHg 61%
18:00 +18°C° 0.6 mm 1 m/S 582 mmHg 65%
19:00 +15°C° 1.2 mm 2 m/S 582 mmHg 72%
20:00 +13°C° 1.2 mm 2 m/S 582 mmHg 79%
21:00 +11°C° 1.2 mm 3 m/S 581 mmHg 86%
22:00 +11°C° 0.3 mm 3 m/S 581 mmHg 83%
23:00 +11°C° 0.3 mm 3 m/S 581 mmHg 81%

28 Juni, Montag

Zeit Temperatur Niederschläge Wind Luftdruck Luftfeuchtigkeit
00:00 +12°C° 0.3 mm 4 m/S 581 mmHg 78%
01:00 +11°C° 0 mm 3 m/S 581 mmHg 75%
02:00 +11°C° 0 mm 3 m/S 581 mmHg 72%
03:00 +11°C° 0 mm 3 m/S 580 mmHg 69%
04:00 +12°C° 0 mm 2 m/S 581 mmHg 69%
05:00 +13°C° 0 mm 2 m/S 581 mmHg 68%
06:00 +14°C° 0 mm 2 m/S 581 mmHg 68%
07:00 +15°C° 0.1 mm 2 m/S 582 mmHg 63%
08:00 +17°C° 0.1 mm 2 m/S 582 mmHg 59%
09:00 +18°C° 0.1 mm 2 m/S 583 mmHg 54%
10:00 +19°C° 0.5 mm 2 m/S 583 mmHg 55%
11:00 +19°C° 0.5 mm 2 m/S 583 mmHg 56%
12:00 +19°C° 0.5 mm 2 m/S 583 mmHg 57%
13:00 +19°C° 1.3 mm 2 m/S 583 mmHg 58%
14:00 +19°C° 1.3 mm 2 m/S 583 mmHg 60%
15:00 +19°C° 1.3 mm 2 m/S 583 mmHg 62%
16:00 +18°C° 1.4 mm 2 m/S 583 mmHg 66%
17:00 +19°C° 1.4 mm 1 m/S 582 mmHg 70%
18:00 +18°C° 1.4 mm 1 m/S 582 mmHg 74%
19:00 +15°C° 0.4 mm 2 m/S 582 mmHg 75%
20:00 +14°C° 0.4 mm 2 m/S 581 mmHg 76%
21:00 +12°C° 0.4 mm 2 m/S 581 mmHg 77%
22:00 +13°C° 0.1 mm 2 m/S 581 mmHg 75%
23:00 +13°C° 0.1 mm 2 m/S 580 mmHg 74%
Mehr zeigen

Wir brauchen deine Erlaubnis

Meteoprog und unser Service Anbieter werden persönliche Daten aufbewahren, so wie Cookies, Geräte Bezeichnung oder ähnliche Technologien von deinem Gerät und Prozess, so wie Persönliche Daten Inhalte und Werbungen, genauso wie social Media und den Verkehr zu analysieren.

  • Aufbewahrung und/oder Zugang zu deiner Geräte Informationen.

    Cookies, Geräte Bezeichnung oder andere Informationen, können aufbewahrt oder Zugang zu deinem Gerät erhalten, für den Grund, der oben angegeben wird.

  • Personalisierte Werbung und Inhalte, Messungen, Einblick in das Publikum und Produkt Entwicklung.

    Werbungen und Inhalte können personalisiert werden, basierend auf ein Profil. Mehr Daten können besser personalisierte Werbungen und Inhalte hinzufügen. Werbung und Inhalte können gezeigt und gemessen werden. Einblicke über das Publikum, welche die Werbung gesehen haben und den Inhalt, können abgeleitet werden. So wie Daten können genutzt werden, um es zu verbessern oder die Benutzer Erfahrung zu verbessern das System und die Software.

Wenn du “Ich stimme zu” klickst, erlaubst du uns, die Cookies zu benutzen die Geräte Bezeichnung, den Web oder ähnliche Technologien zu benutzen. Deine Settings, können in deinem Gerät bei deinem Browser geändert werden.

Für den bestimmten Zweck, berechtigten Interessen beruhen darauf, mehr als auf den Inhalt. Du kannst mehr darüber in unseren Privaten und Cookie Politik lesen.